Regional Weather Roundup
Issued by NWS Northern Indiana

Home | Current Version | Previous Version | Text Only | Print | Product List | Glossary Off
Versions: 1 2 3 4 5 6 7 8 9 10 11 12 13 14 15 16 17 18 19 20 21 22 23 24 25 26 27 28 29 30 31 32 33 34 35 36 37 38 39 40 41 42 43 44 45 46 47 48 49 50

000
ASUS43 KIWX 251510
RWRIWX

KIWX WEATHER ROUNDUP
NATIONAL WEATHER SERVICE NORTHERN INDIANA
1100 AM EDT SAT OCT 25 2014

NOTE: "FAIR" INDICATES FEW OR NO CLOUDS BELOW 12,000 FEET WITH NO
SIGNIFICANT WEATHER AND/OR OBSTRUCTIONS TO VISIBILITY.

* THESE STATIONS ARE NOT UNDER NWS QUALITY CONTROL. THEY ALSO MAY NOT
  REPORT WEATHER SUCH AS PRECIPITATION OR FOG.

INZ001>027-251600-
NORTHERN INDIANA

CITY           SKY/WX    TMP DP  RH WIND       PRES   REMARKS
GARY*          MOSUNNY   63  55  77 W9        29.95R FOG
VALPARAISO     MOSUNNY   58  54  86 W9        29.95R FOG
MICHIGAN CITY* MOSUNNY   59  55  88 W6        29.93S FOG
LAPORTE*       PTSUNNY  N/A N/A N/A W8        29.94S FOG
KNOX*          CLOUDY    53  52  94 W8        29.94R
SOUTH BEND     CLOUDY    58  54  86 W6        29.93S FOG
ELKHART*       CLOUDY    55  54  94 W9        29.92S FOG
GOSHEN         CLOUDY    56  53  90 W12       29.91S FOG
MONTICELLO*    SUNNY     58  55  88 W10       29.95S
LOGANSPORT*    SUNNY     59  54  82 W9        29.95F
ROCHESTER*     SUNNY     61  55  82 W9        29.93S HAZE
WARSAW*        SUNNY     59  54  82 W8        29.92S FOG
ANGOLA*        CLOUDY    55  48  76 W10       29.89S
FORT WAYNE     PTSUNNY   61  53  75 W14       29.92F
HUNTINGTON*    SUNNY    N/A N/A N/A W12       29.92F
PERU/GRISSOM   SUNNY     60  60 100 W13       29.94S
MARION*        SUNNY     61  53  75 W10       29.95F

$$
INZ028>050-251600-
CENTRAL INDIANA

CITY           SKY/WX    TMP DP  RH WIND       PRES   REMARKS
LAFAYETTE      SUNNY     59  55  87 W8        29.96F
KOKOMO*        SUNNY     61 N/A N/A W12       29.95S
MUNCIE*        SUNNY     62  53  72 W9        29.95S
INDIANAPOLIS   MOSUNNY   61  54  77 W9        29.98R

$$
MIZ043>046-050>051-056>058-064>065-071>073-077>080-251600-
SOUTHWEST LOWER MICHIGAN

CITY           SKY/WX    TMP DP  RH WIND       PRES   REMARKS
BATTLE CREEK   CLOUDY    57  52  83 NW15      29.89R
BENTON HARBOR  PTSUNNY   59  55  87 W15       29.90S FOG
COLDWATER*     CLOUDY    58  55  89 W10       29.88S FOG
HILLSDALE*     CLOUDY    57  56  95 W7        29.86S FOG
HOLLAND        CLOUDY    60  55  83 W12G17    29.88S
GRAND RAPIDS   PTSUNNY   59  54  83 W12       29.85F HAZE
KALAMAZOO      CLOUDY    59  54  83 W10       29.89R HAZE
STURGIS*       CLOUDY    55  54  94 W7        29.89S FOG
THREE RIVERS*  PTSUNNY   60  55  84 W12G17    29.89S HAZE

$$
OHZ001>008-015>018-024>025-251600-
NORTHWEST OHIO

CITY           SKY/WX    TMP DP  RH WIND       PRES   REMARKS
WAUSEON*       CLOUDY    57  54  88 W14G21    29.87S FOG
DEFIANCE       CLOUDY    59  54  83 SW9       29.88F HAZE
FINDLAY        MOSUNNY   63  52  67 W15       29.88F HAZE
TOLEDO EXPRESS CLOUDY    59  53  80 SW16G23   29.85F
TOLEDO METCALF PTSUNNY   60  52  74 SW14      29.85F
LIMA           SUNNY     62  52  69 SW14      29.91F

$$
AND FOR LAKE MICHIGAN COASTAL AND OPEN LAKE BUOY OBSERVATIONS

STATION/POSITION TEMP    WIND        PRES    VSBY  WAVE
                 AIR SEA DIR/SP/G                  HT/PER
                 (F)     (DEG/KT/KT) (MB)    (MI)  (FT/S)
CALUMET HARBOR    62     250/  5/ 11 1012.3S
MICHIGAN CITY     57     220/ 14/ 15   N/A
SAINT JOSEPH      57                 1013.2R
SOUTH LAKE BUOY   56 54  280/ 14/ 17 1012.1R         2/ 3

$$
&&



USA.gov is the U.S. government's official web portal to all federal, state and local government web resources and services.